Fort Meade, MD

8:43 AM EDT on June 25, 2017 (GMT -0400)
Tipton

Weather History for KFME - April, 2014

Change the Weather History Date:

Sunday, April 13, 2014

  Actual Average (KBWI) Record (KBWI)
Temperature  
Mean Temperature 63 °F -  
Max Temperature 82 °F 62 °F 89 °F (1977)
Min Temperature 44 °F 40 °F 26 °F (1973)
Degree Days  
Heating Degree Days 2    
Growing Degree Days 13 (Base 50)    
Moisture  
Dew Point 49 °F    
Average Humidity 62    
Maximum Humidity 100    
Minimum Humidity 28    
Precipitation  
Precipitation 0.00 in - - ()
Sea Level Pressure  
Sea Level Pressure 30.10 in    
Wind  
Wind Speed 5 mph (South)    
Max Wind Speed 16 mph    
Max Gust Speed 28 mph    
Visibility 9 miles    
Events      
Averages and records for this station are not official NWS values.
T = Trace of Precipitation, MM = Missing Value Source: NWS Daily Summary

Daily Weather History Graph

Daily Weather History Graph

Search for Another Location

Airport or City:

Trip Planner

Search our weather history database for the weather conditions in past years. The results will help you decide how hot, cold, wet, or windy it might be!

Date:

Astronomy

Apr. 13, 2014 Rise Set
Actual Time 6:33 AM EDT 7:42 PM EDT
Civil Twilight 6:05 AM EDT 8:10 PM EDT
Nautical Twilight 5:33 AM EDT 8:42 PM EDT
Astronomical Twilight 4:58 AM EDT 9:17 PM EDT
Moon 6:18 PM EDT (4/13) 5:30 AM EDT (4/13)
Length of Visible Light 14h 04m
Length of Day
13h 09m
Waxing Gibbous, 97% of the Moon is Illuminated
Apr 13
Waxing Gibbous
Apr 15
Full
Apr 22
Last Quarter
Apr 29
New
May 6
First Quarter

Hourly Weather History & Observations

Time (EDT) Temp. Dew Point Humidity Pressure Visibility Wind Dir Wind Speed Gust Speed Precip Events Conditions
12:03 AM 55.4 °F 46.4 °F 72% 30.19 in 10.0 mi SE 5.8 mph - N/A   Clear
12:24 AM 55.4 °F 46.4 °F 72% 30.18 in 10.0 mi SE 5.8 mph - N/A   Clear
12:42 AM 55.4 °F 46.4 °F 72% 30.19 in 10.0 mi SE 3.5 mph - N/A   Clear
1:03 AM 53.6 °F 46.4 °F 77% 30.18 in 10.0 mi Calm Calm - N/A   Clear
1:24 AM 53.6 °F 46.4 °F 77% 30.17 in 10.0 mi ESE 4.6 mph - N/A   Clear
1:42 AM 53.6 °F 46.4 °F 77% 30.17 in 10.0 mi ESE 3.5 mph - N/A   Clear
2:03 AM 51.8 °F 46.4 °F 82% 30.16 in 10.0 mi Calm Calm - N/A   Clear
2:24 AM 51.8 °F 46.4 °F 82% 30.16 in 10.0 mi Calm Calm - N/A   Clear
2:42 AM 50.0 °F 46.4 °F 87% 30.16 in 10.0 mi Calm Calm - N/A   Clear
3:03 AM 50.0 °F 46.4 °F 87% 30.16 in 10.0 mi Calm Calm - N/A   Clear
3:24 AM 50.0 °F 46.4 °F 87% 30.16 in 10.0 mi Calm Calm - N/A   Clear
3:42 AM 48.2 °F 46.4 °F 93% 30.16 in 10.0 mi Calm Calm - N/A   Clear
4:03 AM 48.2 °F 46.4 °F 93% 30.16 in 7.0 mi Calm Calm - N/A   Clear
4:24 AM 46.4 °F 44.6 °F 93% 30.16 in 7.0 mi Calm Calm - N/A   Clear
4:45 AM 46.4 °F 44.6 °F 93% 30.15 in 7.0 mi Calm Calm - N/A   Clear
5:03 AM 46.4 °F 44.6 °F 93% 30.15 in 7.0 mi Calm Calm - N/A   Clear
5:24 AM 46.4 °F 44.6 °F 93% 30.15 in 4.0 mi Calm Calm - N/A   Clear
5:45 AM 46.4 °F 44.6 °F 93% 30.15 in 5.0 mi Calm Calm - N/A   Clear
6:03 AM 46.4 °F 44.6 °F 93% 30.15 in 4.0 mi Calm Calm - N/A   Clear
6:24 AM 44.6 °F 44.6 °F 100% 30.16 in 5.0 mi Calm Calm - N/A   Clear
6:45 AM 46.4 °F 44.6 °F 93% 30.16 in 4.0 mi Calm Calm - N/A   Clear
7:03 AM 46.4 °F 44.6 °F 93% 30.17 in 3.0 mi Calm Calm - N/A   Unknown
7:24 AM 46.4 °F 44.6 °F 93% 30.17 in 4.0 mi Calm Calm - N/A   Scattered Clouds
7:45 AM 50.0 °F 46.4 °F 87% 30.17 in 10.0 mi Calm Calm - N/A   Mostly Cloudy
8:03 AM 53.6 °F 50.0 °F 88% 30.17 in 10.0 mi Calm Calm - N/A   Scattered Clouds
8:24 AM 55.4 °F 51.8 °F 88% 30.17 in 10.0 mi Calm Calm - N/A   Clear
8:45 AM 55.4 °F 51.8 °F 88% 30.17 in 10.0 mi Calm Calm - N/A   Clear
9:03 AM 59.0 °F 51.8 °F 77% 30.17 in 10.0 mi South 3.5 mph - N/A   Clear
9:24 AM 60.8 °F 51.8 °F 72% 30.17 in 10.0 mi SW 4.6 mph - N/A   Clear
9:45 AM 64.4 °F 51.8 °F 64% 30.16 in 10.0 mi SSW 5.8 mph - N/A   Clear
10:03 AM 66.2 °F 51.8 °F 60% 30.16 in 10.0 mi SSW 5.8 mph - N/A   Clear
10:24 AM 69.8 °F 51.8 °F 53% 30.15 in 10.0 mi SSW 5.8 mph - N/A   Clear
10:45 AM 71.6 °F 51.8 °F 50% 30.15 in 10.0 mi SSW 6.9 mph - N/A   Clear
11:03 AM 73.4 °F 51.8 °F 47% 30.15 in 10.0 mi WSW 9.2 mph - N/A   Clear
11:24 AM 73.4 °F 51.8 °F 47% 30.14 in 10.0 mi SSW 9.2 mph - N/A   Clear
11:45 AM 77.0 °F 50.0 °F 39% 30.12 in 10.0 mi WSW 6.9 mph - N/A   Clear
12:03 PM 77.0 °F 50.0 °F 39% 30.11 in 10.0 mi SW 10.4 mph - N/A   Clear
12:24 PM 78.8 °F 50.0 °F 36% 30.10 in 10.0 mi South 10.4 mph 19.6 mph N/A   Clear
12:45 PM 78.8 °F 50.0 °F 36% 30.10 in 10.0 mi SW 11.5 mph 23.0 mph N/A   Clear
1:03 PM 80.6 °F 50.0 °F 34% 30.08 in 10.0 mi SW 9.2 mph 20.7 mph N/A   Clear
1:24 PM 82.4 °F 50.0 °F 32% 30.08 in 10.0 mi SSW 8.1 mph 17.3 mph N/A   Clear
1:45 PM 82.4 °F 50.0 °F 32% 30.07 in 10.0 mi SW 16.1 mph 27.6 mph N/A   Clear
2:06 PM 80.6 °F 46.4 °F 30% 30.06 in 10.0 mi SSW 16.1 mph 26.5 mph N/A   Clear
2:24 PM 80.6 °F 50.0 °F 34% 30.06 in 10.0 mi SW 9.2 mph 21.9 mph N/A   Clear
2:45 PM 82.4 °F 50.0 °F 32% 30.04 in 10.0 mi SSE 10.4 mph 17.3 mph N/A   Clear
3:06 PM 82.4 °F 50.0 °F 32% 30.03 in 10.0 mi SSW 16.1 mph 25.3 mph N/A   Clear
3:24 PM 82.4 °F 48.2 °F 30% 30.02 in 10.0 mi SSW 13.8 mph 19.6 mph N/A   Clear
4:06 PM 82.4 °F 46.4 °F 28% 30.01 in 10.0 mi South 15.0 mph 23.0 mph N/A   Clear
4:24 PM 82.4 °F 48.2 °F 30% 30.01 in 10.0 mi South 15.0 mph 23.0 mph N/A   Clear
4:45 PM 82.4 °F 48.2 °F 30% 30.01 in 10.0 mi South 12.7 mph 21.9 mph N/A   Clear
5:06 PM 82.4 °F 48.2 °F 30% 30.01 in 10.0 mi SSW 15.0 mph 18.4 mph N/A   Clear
5:24 PM 82.4 °F 48.2 °F 30% 30.00 in 10.0 mi South 13.8 mph 27.6 mph N/A   Clear
5:45 PM 82.4 °F 48.2 °F 30% 30.00 in 10.0 mi South 13.8 mph 17.3 mph N/A   Clear
6:06 PM 80.6 °F 50.0 °F 34% 30.00 in 10.0 mi South 11.5 mph 19.6 mph N/A   Clear
6:24 PM 80.6 °F 50.0 °F 34% 30.00 in 10.0 mi South 13.8 mph 19.6 mph N/A   Clear
7:06 PM 78.8 °F 50.0 °F 36% 30.00 in 10.0 mi South 9.2 mph 21.9 mph N/A   Clear
7:24 PM 77.0 °F 51.8 °F 41% 30.00 in 10.0 mi South 6.9 mph - N/A   Clear
7:45 PM 73.4 °F 51.8 °F 47% 30.01 in 10.0 mi SE 10.4 mph - N/A   Clear
8:06 PM 71.6 °F 51.8 °F 50% 30.02 in 10.0 mi SE 8.1 mph - N/A   Clear
8:24 PM 69.8 °F 53.6 °F 56% 30.02 in 10.0 mi SE 6.9 mph - N/A   Clear
8:45 PM 68.0 °F 53.6 °F 60% 30.02 in 10.0 mi SE 6.9 mph - N/A   Clear
9:06 PM 68.0 °F 53.6 °F 60% 30.02 in 10.0 mi SE 8.1 mph - N/A   Clear
9:24 PM 66.2 °F 53.6 °F 64% 30.03 in 10.0 mi SE 6.9 mph - N/A   Clear
9:45 PM 64.4 °F 53.6 °F 68% 30.03 in 10.0 mi SE 4.6 mph - N/A   Clear
10:06 PM 64.4 °F 53.6 °F 68% 30.03 in 10.0 mi SE 4.6 mph - N/A   Clear
10:27 PM 64.4 °F 53.6 °F 68% 30.03 in 10.0 mi SSE 8.1 mph - N/A   Clear
10:45 PM 64.4 °F 53.6 °F 68% 30.02 in 10.0 mi SSE 6.9 mph - N/A   Clear
11:06 PM 64.4 °F 53.6 °F 68% 30.02 in 10.0 mi South 6.9 mph - N/A   Clear
11:27 PM 62.6 °F 53.6 °F 72% 30.02 in 10.0 mi South 5.8 mph - N/A   Clear
11:45 PM 62.6 °F 53.6 °F 72% 30.02 in 10.0 mi SSE 4.6 mph - N/A   Clear